Regional Weather Roundup
Issued by NWS Albany, NY

Home | Current Version | Previous Version | Text Only | Print | Product List | Glossary On
Versions: 1 2 3 4 5 6 7 8 9 10 11 12 13 14 15 16 17 18 19 20 21 22 23 24 25 26 27 28 29 30 31 32 33 34 35 36 37 38 39 40 41 42 43 44 45 46 47 48 49 50
000
ASUS41 KALY 131210
RWRALY

NEW YORK STATE HOURLY WEATHER ROUNDUP
NATIONAL WEATHER SERVICE ALBANY NY
700 AM EST WED DEC 13 2017

NOTE: "FAIR" INDICATES FEW OR NO CLOUDS BELOW 12,000 FEET WITH NO
SIGNIFICANT WEATHER AND/OR NO OBSTRUCTIONS TO VISIBILITY.

NYZ032-033-038>043-046>054-057>066-NYZ062>081-082-084-131300-
EAST


CITY           SKY/WX    TMP DP  RH WIND       PRES   REMARKS
ALBANY         MOCLDY    17   6  62 W13       29.41S WCI   4
GLENS FALLS    CLOUDY    15   7  70 W8        29.36F WCI   4
POUGHKEEPSIE   CLEAR     18   3  52 W13G26    29.46R WCI   5
NEWBURGH       PTCLDY    16   7  67 W18G28    29.46R WCI  -1
MONTGOMERY     CLEAR     18   3  52 W18G31    29.46S WCI   2
WHITE PLAINS   MOCLDY    19   5  54 W24G32    29.45R WCI   2
ISLIP          PTCLDY    21   5  50 W20G32    29.47R WCI   6
NEW YORK CITY  PTCLDY    22   7  52 W25G31    29.53R WCI   5
CENTRAL PARK   PTCLDY    20   5  52 W12G28    29.54R WCI   8
$$

NYZ005>009-017-018-044>046-055-056-131300-
CENTRAL


CITY           SKY/WX    TMP DP  RH WIND       PRES   REMARKS
FULTON         LGT SNOW  14   9  80 NW12      29.52S WCI   0
SYRACUSE       LGT SNOW  13  11  92 NW14G25   29.52R VSB 1   WCI  -2
ROME           LGT SNOW  14  10  84 NW16      29.47S FOG     WCI  -2
ELMIRA         FLURRIES  16   8  71 NW9G24    29.56R WCI   4
BINGHAMTON     LGT SNOW  10   6  84 W13       29.43S VSB 1   WCI  -5
$$

NYZ026>034-041>043-087-131300-
NORTH


CITY           SKY/WX    TMP DP  RH WIND       PRES   REMARKS
WATERTOWN      CLOUDY    10   5  80 NW10      29.53R WCI  -4
FORT DRUM      NOT AVBL
OGDENSBURG     FLURRIES  10   5  81 NW12G17   29.48S WCI  -5
MASSENA        FLURRIES  11   6  81 W15       29.45F WCI  -5
SARANAC LAKE   CLOUDY     7   3  84 W9        29.29  FOG     WCI  -7
PLATTSBURGH    CLOUDY    17   7  64 W13G22    29.34F WCI   4
$$

NYZ001>004-010>016-019>021-085-131300-
WEST


CITY           SKY/WX    TMP DP  RH WIND       PRES   REMARKS
NIAGARA FALLS  CLOUDY    16   6  65 W14       29.70R WCI   2
BUFFALO        FLURRIES  12   5  73 W13       29.69R WCI  -3
DUNKIRK        CLOUDY    18  10  71 NW16G24   29.75R WCI   3
JAMESTOWN      LGT SNOW  14   9  80 NW17G23   29.65R WCI  -3
WELLSVILLE     LGT SNOW  12   4  70 NW28G35   29.54R WCI  -9
ROCHESTER      LGT SNOW  15  11  83 NW16G25   29.61R BLWGSNOWWCI  -1
PENN YAN       LGT SNOW  15   6  67 W20G31    29.54R WCI  -2
$$

             KEY
       WCI = WIND CHILL INDEX
       VSB = VISIBILITY
       HX  = HEAT INDEX
$$



USA.gov is the U.S. government's official web portal to all federal, state and local government web resources and services.